Location: Mouss�
(47.9236°N, 1.2701°W)
Time: 03:51:48
(UTC+00:00)

USA 306 - Visible Passes

Search period start: 14 June 2021 00:00
Search period end: 24 June 2021 00:00
Orbit: 565 x 575 km, 54.0° (Epoch: 11 May)

Date Brightness Start Highest point End Pass type
(mag) Time Alt. Az. Time Alt. Az. Time Alt. Az.
14 Jun 4.7 03:03:36 10° S 03:06:51 21° SE 03:10:06 10° E visible
15 Jun 4.1 03:04:05 10° SSW 03:07:48 30° SE 03:11:32 10° ENE visible
16 Jun 3.6 03:04:50 10° SSW 03:08:48 43° SE 03:12:51 10° ENE visible
17 Jun 5.1 01:29:42 11° SE 01:30:38 12° SE 01:32:19 10° ESE visible
17 Jun 3.1 03:05:45 10° SW 03:09:51 61° SE 03:14:03 10° ENE visible
18 Jun 4.7 01:30:33 17° SSE 01:31:31 18° SE 01:34:24 10° E visible
18 Jun 2.9 03:06:41 10° SW 03:10:56 83° SE 03:15:12 10° ENE visible
19 Jun 4.2 01:31:21 23° SSE 01:32:26 25° SE 01:35:57 10° ENE visible
19 Jun 3.0 03:07:48 10° WSW 03:12:03 76° NNW 03:16:19 10° ENE visible
20 Jun 3.7 01:32:05 29° S 01:33:24 36° SE 01:37:18 10° ENE visible
20 Jun 3.4 03:09:00 10° WSW 03:13:13 60° NNW 03:17:25 10° ENE visible
21 Jun 3.2 01:32:46 32° SSW 01:34:24 51° SE 01:38:32 10° ENE visible
21 Jun 3.7 03:10:16 10° W 03:14:24 49° NNW 03:18:32 10° ENE visible
21 Jun 5.0 23:57:20 13° ESE 23:57:20 13° ESE 23:58:31 10° E visible
22 Jun 2.8 01:33:23 29° SW 01:35:27 71° SE 01:39:42 10° ENE visible
22 Jun 4.0 03:11:33 10° W 03:15:37 42° NNW 03:19:41 10° ENE visible
22 Jun 4.5 23:57:52 20° ESE 23:57:52 20° ESE 00:00:15 10° E visible
23 Jun 2.8 01:33:54 23° WSW 01:36:32 87° NNW 01:40:48 10° ENE visible
23 Jun 4.2 03:12:51 10° WNW 03:16:50 38° N 03:20:50 10° ENE visible
